This is the latest recevied weather packets stored in our database for station/object HI3LT-13. If no packets are shown the sender has not sent any weather packets the latest 10 day(s).
| Time | Temp. | Humidity | Pressure | Rain* | Wind** | Luminosity | Snow |
|---|---|---|---|---|---|---|---|
| 1788020573 | 34.44° C | 70% | 1015 hPa | 0 mm | - | - | - |
| 1788019981 | 34.44° C | 71% | 1015 hPa | 0 mm | - | - | - |
| 1788019371 | 33.33° C | 71% | 1015 hPa | 0 mm | - | - | - |
| 1788018770 | 32.22° C | 69% | 1015 hPa | 0 mm | - | - | - |
| 1788018169 | 34.44° C | 68% | 1016 hPa | 0 mm | - | - | - |
| 1788017568 | 28.89° C | 66% | 1016 hPa | 0 mm | - | - | - |
| 1788016967 | 31.11° C | 81% | 1016 hPa | 0 mm | - | - | - |
| 1788016366 | 32.78° C | 81% | 1016 hPa | 0 mm | - | - | - |
| 1788015765 | 32.78° C | 81% | 1016 hPa | 0 mm | - | - | - |
| 1788015163 | 30° C | 77% | 1016 hPa | 0 mm | - | - | - |
| 1788014562 | 32.78° C | 79% | 1016 hPa | 0 mm | - | - | - |
| 1788013960 | 30.56° C | 77% | 1016 hPa | 0 mm | - | - | - |
| 1788013359 | 31.11° C | 77% | 1016 hPa | 0 mm | - | - | - |
| 1788012758 | 31.67° C | 81% | 1016 hPa | 0 mm | - | - | - |
| 1788012157 | 30° C | 80% | 1016 hPa | 0 mm | - | - | - |
| 1788011555 | 30° C | 80% | 1016 hPa | 0 mm | - | - | - |
| 1788010954 | 29.44° C | 81% | 1016 hPa | 0 mm | - | - | - |
| 1788010353 | 26.67° C | 81% | 1016 hPa | 0 mm | - | - | - |
| 1788009752 | 28.33° C | 86% | 1016 hPa | 0 mm | - | - | - |
| 1788009150 | 30° C | 89% | 1016 hPa | 0 mm | - | - | - |
| 1788009020 | 30° C | 89% | 1016 hPa | 0 mm | - | - | - |
| 1788008419 | 25° C | 89% | 1016 hPa | 0 mm | - | - | - |
| 1788007819 | 30° C | 89% | 1016 hPa | 0 mm | - | - | - |
| 1788007218 | 25° C | 89% | 1016 hPa | 0 mm | - | - | - |
| 1788006617 | 25° C | 91% | 1016 hPa | 0 mm | - | - | - |
* Rain latest hour (hover to see other rain measurements)
** Current wind speed in m/s (hover to see current wind gust speed)